CAPE
1270 1016 862 581 466 367 292 297 191 144 75 62 44 0 0 31 19 0 0 0 0 0 0 0 0 0 0 4 9 7 11 8 11 19 19 19 24 28
729 488 509 56 206 411 251 132 90 53 27 36 15 8 0 0 0 1 0 0 0 0 0 0 0 0 0 0 0 0 6 11 7 8 14 10 17 26
1102 847 278 0 212 354 204 214 113 74 42 25 35 39 12 0 0 1 11 0 0 0 0 0 0 0 0 0 0 0 0 2 8 11 13 21 36 36
1014 962 612 430 311 318 253 190 126 128 64 36 30 34 14 0 0 1 1 0 0 0 0 0 0 0 0 0 0 0 0 0 0 7 17 15 31 23
1025 671 559 498 405 344 242 186 155 102 66 41 15 8 44 7 6 0 1 1 0 0 1 0 0 0 0 0 0 0 0 0 0 0 0 0 0 0
654 422 217 188 165 95 26 6 1 14 35 39 11 4 3 5 12 0 0 0 0 0 0 0 1 0 0 0 0 0 0 0 0 0 0 0 0 0
1 0 0 1 1 0 0 0 0 0 1 5 4 3 1 0 0 0 0 0 0 0 1 0 0 0 0 0 0 0 1 1 0 0 0 0 0 0
1 1 2 1 1 1 2 2 0 0 1 1 2 3 4 0 0 0 0 0 0 0 0 0 0 0 0 0 0 0 2 3 6 7 2 4 2 3
5 2 2 1 0 1 2 2 2 3 1 2 2 1 1 1 1 0 0 0 0 0 0 0 0 0 0 2 4 5 6 7 7 7 6 5 5 3
2 0 0 0 0 0 1 1 1 1 1 1 1 1 1 0 0 0 0 0 0 0 0 0 0 0 0 0 8 8 7 5 5 4 3 3 4 3
1 0 0 0 1 2 0 1 0 0 2 3 4 3 2 1 0 0 0 0 0 0 0 0 0 0 0 0 0 6 7 6 5 6 6 6 6 4
0 0 5 2 0 1 0 0 0 0 0 0 0 0 0 0 1 0 1 0 0 0 0 0 0 0 0 0 2 1 2 5 7 7 8 4 2 1
0 0 3 11 10 7 2 1 0 0 0 0 0 0 0 0 0 0 0 0 0 0 0 0 0 0 0 0 0 0 0 0 0 2 6 4 0 0
0 0 4 12 13 9 3 4 2 0 0 0 0 0 0 0 0 0 0 0 0 0 0 0 0 0 0 0 0 0 0 0 0 1 1 0 0 0
0 6 6 7 6 1 6 3 0 0 0 0 0 0 0 0 0 0 0 0 0 0 0 0 0 0 0 0 0 0 1 4 1 1 0 0 0 0
0 0 0 1 0 0 0 1 0 0 0 0 0 1 0 0 0 0 0 0 0 0 0 0 0 0 0 0 0 0 0 1 0 0 0 0 0 0
0 0 0 0 0 0 0 0 0 0 0 0 0 0 0 0 1 1 1 0 0 0 0 0 0 0 0 0 0 0 0 1 0 0 0 2 9 1
0 0 0 0 0 0 0 0 0 0 0 0 0 0 0 0 0 0 1 0 0 1 1 0 0 0 0 0 0 1 0 0 0 0 0 0 0 0
0 0 0 0 0 0 0 0 0 0 0 0 0 0 0 0 0 0 0 0 0 0 0 0 0 0 0 0 0 0 0 0 0 0 0 0 0 0
0 0 0 0 0 0 0 0 0 0 0 0 0 0 0 0 0 0 0 0 0 0 0 0 0 0 0 0 0 0 0 0 0 0 0 0 0 0
0 0 0 0 0 0 0 0 0 0 0 0 0 0 0 0 0 0 0 0 0 0 0 0 0 0 0 0 0 0 0 0 0 0 0 0 0 0
0 0 0 0 0 0 0 0 0 0 0 0 0 0 0 0 0 0 0 0 0 0 0 0 0 0 0 0 0 0 0 0 0 0 0 0 0 0
0 0 0 0 0 0 0 0 0 0 0 0 0 0 0 0 0 0 0 0 0 0 0 0 0 0 0 0 0 0 0 0 0 0 0 0 0 0
CIN
-15 -19 -54 -161 -63 -23 -53 -51 -65 -83 -124 -94 -128 -0 -0 -57 -68 -0 -0 -0 -0 -0 -0 -0 -0 -0 -0 -68 -51 -41 -28 -20 -19 -14 -12 -7 -2 -1
-55 -76 -83 -101 -12 -32 -36 -76 -92 -99 -157 -154 -137 -88 -0 -0 -0 -9 -1 -0 -0 -0 -0 -0 -0 -0 -0 -51 -0 -59 -61 -48 -32 -25 -18 -12 -9 -6
-1 -19 -158 -0 -3 -20 -32 -34 -72 -64 -116 -122 -105 -73 -167 -0 -0 -3 -43 -0 -0 -0 -0 -0 -0 -0 -0 -0 -0 -0 -0 -62 -62 -50 -39 -30 -15 -10
-4 -18 -72 -10 -36 -44 -51 -38 -54 -27 -60 -87 -59 -35 -51 -0 -0 -0 -0 -0 -0 -0 -0 -0 -0 -0 -0 -0 -0 -0 -0 -0 -0 -92 -54 -39 -33 -24
-12 -73 -90 -42 -30 -29 -31 -25 -26 -21 -46 -91 -91 -32 -54 -30 -11 -0 -20 -0 -0 -0 -0 -0 -0 -0 -0 -0 -0 -0 -0 -0 -0 -0 -0 -0 -0 -0
-36 -46 -117 -17 -16 -24 -54 -63 -84 -59 -94 -70 -37 -12 -31 -37 -14 -0 -0 -0 -0 -0 -0 -0 -0 -0 -0 -0 -0 -0 -0 -0 -0 -0 -0 -0 -0 -0
-0 -0 -0 -0 -0 -0 -0 -0 -0 -0 -0 -0 -0 -2 -3 -1 -0 -0 -0 -0 -0 -0 -0 -0 -0 -0 -0 -0 -0 -0 -0 -0 -0 -0 -0 -0 -0 -0
-0 -0 -0 -0 -0 -0 -0 -0 -0 -0 -0 -0 -0 -1 -0 -5 -0 -0 -0 -0 -0 -0 -0 -0 -0 -0 -0 -0 -0 -0 -0 -0 -0 -0 -0 -0 -0 -0
-0 -0 -0 -0 -0 -0 -0 -0 -0 -0 -0 -0 -0 -0 -0 -0 -0 -0 -0 -0 -0 -0 -0 -0 -0 -0 -0 -0 -0 -0 -0 -0 -0 -0 -0 -0 -0 -0
-0 -0 -0 -0 -0 -0 -0 -0 -0 -0 -0 -0 -0 -0 -0 -0 -0 -0 -0 -0 -0 -0 -0 -0 -0 -0 -0 -0 -0 -0 -0 -0 -0 -0 -0 -0 -0 -0
-0 -0 -0 -0 -0 -0 -0 -0 -0 -0 -0 -0 -0 -0 -0 -0 -0 -0 -0 -0 -0 -0 -0 -0 -0 -0 -0 -0 -0 -0 -0 -0 -0 -0 -0 -0 -0 -0
-0 -0 -0 -0 -0 -0 -0 -0 -0 -0 -0 -0 -0 -0 -0 -0 -0 -0 -0 -0 -0 -0 -0 -0 -0 -0 -0 -0 -0 -0 -0 -0 -0 -0 -0 -0 -0 -0
-0 -0 -0 -0 -0 -0 -0 -0 -0 -0 -0 -0 -0 -0 -0 -0 -0 -0 -0 -0 -0 -0 -0 -0 -0 -0 -0 -0 -0 -0 -0 -0 -0 -0 -0 -0 -0 -0
-0 -0 -0 -0 -0 -0 -0 -0 -0 -0 -0 -0 -0 -0 -0 -0 -0 -0 -0 -0 -0 -0 -0 -0 -0 -0 -0 -0 -0 -0 -0 -0 -0 -0 -0 -0 -0 -0
-0 -0 -0 -0 -0 -0 -0 -0 -0 -0 -0 -0 -0 -0 -0 -0 -0 -0 -0 -0 -0 -0 -0 -0 -0 -0 -0 -0 -0 -0 -0 -0 -0 -0 -0 -0 -0 -0
-0 -0 -0 -0 -0 -0 -0 -0 -0 -0 -0 -0 -0 -0 -0 -0 -0 -0 -0 -0 -0 -0 -0 -0 -0 -0 -0 -0 -0 -0 -0 -0 -0 -0 -0 -0 -0 -0
-0 -0 -0 -0 -0 -1 -0 -0 -0 -0 -0 -0 -0 -0 -0 -0 -0 -0 -0 -0 -0 -0 -0 -0 -0 -0 -0 -0 -0 -0 -0 -0 -0 -0 -0 -0 -2 -3
-0 -0 -0 -0 -0 -0 -0 -0 -0 -0 -0 -0 -0 -0 -0 -0 -0 -0 -0 -0 -0 -0 -0 -0 -0 -0 -0 -0 -0 -0 -0 -0 -0 -0 -0 -0 -0 -0
-0 -0 -0 -0 -0 -0 -0 -0 -0 -0 -0 -0 -0 -0 -0 -0 -0 -0 -0 -0 -0 -0 -0 -0 -0 -0 -0 -0 -0 -0 -0 -0 -0 -0 -0 -0 -0 -0
-0 -0 -0 -0 -0 -0 -0 -0 -0 -0 -0 -0 -0 -0 -0 -0 -0 -0 -0 -0 -0 -0 -0 -0 -0 -0 -0 -0 -0 -0 -0 -0 -0 -0 -0 -0 -0 -0
-0 -0 -0 -0 -0 -0 -0 -0 -0 -0 -0 -0 -0 -0 -0 -0 -0 -0 -0 -0 -0 -0 -0 -0 -0 -0 -0 -0 -0 -0 -0 -0 -0 -0 -0 -0 -0 -0
-0 -0 -0 -0 -0 -0 -0 -0 -0 -0 -0 -0 -0 -0 -0 -0 -0 -0 -0 -0 -0 -0 -0 -0 -0 -0 -0 -0 -0 -0 -0 -0 -0 -0 -0 -0 -0 -0
-0 -0 -0 -0 -0 -0 -0 -0 -0 -0 -0 -0 -0 -0 -0 -0 -0 -0 -0 -0 -0 -0 -0 -0 -0 -0 -0 -0 -0 -0 -0 -0 -0 -0 -0 -0 -0 -0
Wind_Speed
11 10 8 8 9 9 6 4 5 5 5 5 4 6 6 5 8 7 7 14 17 17 18 18 19 19 19 19 18 18 19 20 20 18 16 17 18 17
10 12 7 4 6 6 5 4 3 4 4 5 5 5 9 7 7 10 10 11 17 18 18 16 16 17 17 18 17 17 17 17 16 17 16 17 17 16
13 13 11 8 11 5 5 5 7 6 6 3 4 5 7 8 7 8 8 9 8 16 16 15 15 16 17 17 16 16 16 16 16 16 16 15 15 14
12 13 14 14 11 9 6 7 5 5 4 6 4 4 5 9 8 9 9 9 9 15 18 17 16 15 15 17 16 15 15 14 13 13 13 13 12 11
15 15 13 12 11 8 7 6 5 4 4 3 3 3 3 6 6 5 3 3 3 6 12 14 14 14 12 10 15 16 15 13 13 13 11 10 9 10
11 9 5 6 7 6 5 4 3 2 1 2 3 3 3 3 7 5 3 2 2 4 10 6 8 8 10 11 11 12 14 13 12 12 14 16 17 18
12 12 11 15 18 10 5 6 4 2 2 2 5 3 4 3 4 3 3 3 3 1 5 4 5 6 6 6 8 13 14 17 21 23 23 23 22 22
14 12 11 16 19 24 23 25 15 4 2 2 4 7 10 8 5 7 6 3 3 1 4 4 4 7 7 6 15 17 19 21 23 24 25 25 24 24
11 10 9 8 13 13 18 22 20 18 12 3 2 4 5 6 5 8 7 5 4 5 8 5 3 7 7 12 20 23 24 22 24 26 26 25 24 21
15 10 10 9 9 12 13 12 12 12 11 7 7 5 5 8 5 3 5 7 9 5 3 5 1 6 7 9 21 19 24 22 22 23 22 23 22 20
18 15 12 13 10 16 14 12 11 9 9 14 15 15 15 20 13 6 7 11 4 2 2 5 3 6 6 7 9 18 19 20 23 20 21 18 18 16
16 17 24 17 18 16 9 11 11 7 7 8 10 13 15 14 22 11 3 5 6 3 3 5 6 4 4 2 7 7 8 17 18 19 17 13 8 3
12 13 11 27 24 24 16 11 9 6 9 9 9 9 10 11 10 11 11 6 3 4 2 4 5 3 2 7 3 4 5 6 6 9 11 7 7 4
12 10 14 26 25 21 16 22 18 10 8 9 10 10 9 9 9 10 12 11 10 8 5 3 5 3 5 7 5 3 4 4 5 4 4 4 3 3
9 16 21 20 18 14 20 20 12 9 9 10 9 7 6 6 7 8 10 11 15 14 9 6 7 9 6 6 7 6 6 3 3 6 5 4 3 2
11 9 9 11 14 11 12 12 10 8 7 8 7 6 5 6 8 7 6 6 8 10 14 15 9 6 8 8 8 8 5 3 4 4 4 3 2 2
8 8 8 9 9 9 10 10 8 7 7 7 5 5 5 5 6 5 7 7 7 6 8 8 11 13 12 8 8 7 6 5 4 4 2 0 3 3
8 8 8 8 9 8 8 8 8 8 7 7 6 6 5 4 4 5 6 6 6 6 6 5 5 5 5 9 12 5 4 4 5 6 4 2 2 3
9 9 8 8 8 9 8 8 7 7 8 7 6 5 4 4 3 4 4 4 5 5 5 4 3 3 4 3 3 13 3 4 3 2 2 2 2 1
9 8 7 7 7 7 6 7 6 7 6 6 6 6 4 5 6 6 5 3 3 4 4 7 7 7 4 2 3 1 10 3 2 1 2 2 1 6
7 7 7 7 7 6 6 5 3 3 4 5 6 6 5 4 3 3 3 4 3 3 6 5 3 1 1 2 4 2 1 5 3 1 2 1 2 2
8 8 6 6 5 4 4 4 5 6 6 5 4 5 5 4 4 5 5 3 4 4 5 3 2 1 1 2 5 3 4 2 6 8 6 3 3 0
8 7 7 6 6 7 7 4 4 4 3 3 5 5 3 4 4 3 3 5 5 4 3 2 1 2 3 3 3 3 3 1 1 1 4 11 10 10
Wind_Direction
200 198 199 176 191 210 182 171 163 187 200 195 158 199 201 188 190 187 198 197 193 194 190 189 189 192 190 189 193 195 197 202 207 214 216 217 221 225
199 206 181 218 257 187 166 154 171 186 202 176 202 167 187 200 191 194 206 181 197 191 190 190 192 193 192 188 192 194 197 200 205 208 214 216 219 225
193 190 197 213 216 208 153 183 196 191 211 231 196 186 171 183 188 204 196 191 193 197 192 191 196 196 192 189 194 199 201 203 204 208 211 212 219 216
189 183 180 187 195 183 171 199 207 201 186 202 199 216 182 192 192 192 208 197 194 198 192 194 201 202 202 191 189 198 202 205 204 201 200 195 201 200
183 189 186 179 181 180 184 191 196 191 184 170 206 225 206 178 195 196 176 75 62 147 182 189 195 195 205 211 200 194 196 195 194 189 183 171 168 161
192 192 154 144 146 127 112 105 81 43 124 174 194 210 185 198 193 164 135 99 107 87 75 99 137 162 188 191 200 203 190 177 165 147 130 120 116 115
92 84 78 89 84 76 112 63 51 42 23 252 246 214 207 170 195 154 137 120 54 155 89 61 101 94 82 99 144 153 149 136 128 123 118 113 112 112
110 105 110 96 86 85 87 77 63 50 14 287 275 238 233 222 192 182 136 148 154 342 93 66 54 84 80 81 97 105 117 121 117 115 112 110 111 113
99 110 101 106 100 92 83 77 68 60 55 349 323 20 320 13 299 170 188 170 142 134 110 68 57 81 94 87 91 101 100 106 109 112 111 108 104 103
57 49 70 74 84 104 91 82 73 62 50 47 48 26 356 307 240 282 129 95 85 54 69 96 43 99 88 93 99 105 108 112 106 105 103 105 102 105
50 44 44 54 71 100 98 98 80 59 54 56 52 37 28 25 27 126 141 133 110 120 44 104 140 94 86 99 104 105 111 109 104 100 102 101 106 110
54 46 52 60 63 64 77 93 86 62 60 47 37 30 25 24 34 30 13 159 120 116 165 103 154 147 97 355 113 113 116 109 110 111 107 104 112 129
54 56 55 60 59 65 67 69 76 86 68 66 57 44 36 29 30 32 33 43 76 63 107 116 154 127 86 124 78 95 113 105 100 101 114 136 173 183
58 52 57 60 59 60 64 70 64 65 64 61 58 48 40 36 31 37 44 52 56 74 71 58 110 123 133 115 126 130 123 123 124 127 141 166 95 98
59 62 59 59 60 54 50 54 52 54 55 59 58 53 45 48 45 47 47 53 57 48 48 71 101 125 126 118 134 148 150 154 171 155 170 168 132 130
33 38 46 53 59 53 42 42 46 42 50 58 56 50 40 39 38 28 41 54 58 48 43 43 55 91 106 114 130 135 114 134 106 78 97 154 192 150
46 46 44 43 43 45 43 40 42 44 42 38 55 54 56 39 42 40 50 55 68 62 52 44 54 64 56 68 96 100 111 117 125 110 79 205 196 191
53 50 48 45 46 46 47 39 33 30 37 46 45 51 52 62 76 81 71 63 73 75 81 66 73 78 61 50 39 104 110 139 151 171 180 158 220 203
49 45 43 38 38 36 32 34 36 27 25 35 34 25 28 28 47 64 56 84 105 119 129 135 134 117 102 98 109 35 131 81 96 123 187 149 181 273
46 42 37 36 41 41 39 35 25 17 22 29 25 23 16 39 39 34 17 47 80 89 65 47 43 40 55 122 130 71 36 70 58 34 52 41 321 268
32 40 37 30 27 31 27 18 29 13 17 26 22 16 10 31 46 52 37 14 7 82 84 65 41 321 58 62 69 109 66 73 77 76 30 26 257 261
18 17 25 26 19 7 25 15 30 26 16 16 17 18 1 11 30 36 18 40 33 71 96 118 180 243 47 19 112 141 120 201 219 220 211 189 148 193
16 11 13 22 21 13 8 17 28 25 9 14 19 356 355 10 12 29 42 44 17 39 36 86 99 42 56 79 49 77 109 241 339 137 217 215 226 241